Location: Goll?ig?dem
(16.6773°N, 80.7332°E)
Time: 23:42:07
(UTC+00:00)

Hubble Space Telescope - Pass Details

Date: 02 October 2021
Orbit: 535 x 538 km, 28.5° (Epoch: 22 October)

Event Time Altitude Azimuth Distance (km) Brightness Sun altitude
Exits shadow 23:46:09 - 221° (SW) 2,303 3.6 -10.7°
Reaches altitude 10° 23:47:36 10° 214° (SW) 1,777 3.1 -10.4°
Maximum altitude 23:51:16 31° 151° (SSE) 945 2.3 -9.5°
Drops below altitude 10° 23:54:56 10° 88° (E) 1,777 5.1 -8.6°
Sets 23:57:21 0° 78° (ENE) 2,667 6.2 -8.0°
